Tracking 29781 objects as of 15-Oct-2024
HD Live streaming from Space Station
objects crossing your sky now

STARLINK-2491

Track STARLINK-2491 now!
10-day predictions
STARLINK-2491 is classified as:


NORAD ID: 48148
Int'l Code: 2021-027BJ
Perigee: 553.3 km
Apogee: 555.4 km
Inclination: 53.1 °
Period: 95.6 minutes
Semi major axis: 6925 km
RCS: Unknown
Launch date: April 7, 2021
Source: United States (US)
Launch site: AIR FORCE EASTERN TEST RANGE (AFETR)
Your satellite tracking list
Your tracking list is empty




NASA's NSSDC Master Catalog

Two Line Element Set (TLE):
1 48148U 21027BJ  24289.20558090 -.00005032  00000-0 -31919-3 0  9999
2 48148  53.0547 303.2730 0001548 109.6407 250.4749 15.06397530195076
Source of the keplerian elements: AFSPC